Weather History for LKPD - October, 2012

Change the Weather History Date:

Friday, October 19, 2012

  Actual Average Record
Temperature  
Mean Temperature 54 °F -  
Max Temperature 68 °F - - ()
Min Temperature 39 °F - - ()
Degree Days  
Heating Degree Days 12    
Growing Degree Days 4 (Base 50)    
Moisture  
Dew Point 46 °F    
Average Humidity 90    
Maximum Humidity 100    
Minimum Humidity 56    
Precipitation  
Precipitation 0.00 in - - ()
Sea Level Pressure  
Sea Level Pressure 30.10 in    
Wind  
Wind Speed 1 mph ()    
Max Wind Speed 6 mph    
Max Gust Speed -    
Visibility 1.2 miles    
Events Fog    
T = Trace of Precipitation, MM = Missing Value Source: Averaged Metar Reports

Daily Weather History Graph

Daily Weather History Graph

Search for Another Location

Airport or City:

Trip Planner

Search our weather history database for the weather conditions in past years. The results will help you decide how hot, cold, wet, or windy it might be!

Date:

Astronomy

Oct. 19, 2012 Rise Set
Actual Time 7:25 AM CEST 5:57 PM CEST
Civil Twilight 6:52 AM CEST 6:30 PM CEST
Nautical Twilight 6:15 AM CEST 7:07 PM CEST
Astronomical Twilight 5:37 AM CEST 7:44 PM CEST
Moon 12:13 PM CEST (10/19) 8:55 PM CEST (10/19)
Length of Visible Light 11h 37m
Length of Day
10h 31m
Waxing Crescent, 21% of the Moon is Illuminated
Oct 19
Waxing Crescent
Oct 22
First Quarter
Oct 29
Full
Nov 7
Last Quarter
Nov 13
New

Hourly Weather History & Observations

Time (CEST) Temp. Dew Point Humidity Pressure Visibility Wind Dir Wind Speed Gust Speed Precip Events Conditions
12:00 AM 44.6 °F 44.6 °F 100% 30.12 in 3.7 mi Variable 1.2 mph - N/A   Unknown
1:00 AM 42.8 °F 42.8 °F 100% 30.12 in 3.7 mi Calm Calm - N/A   Unknown
1:40 AM 41.0 °F 41.0 °F 100% 30.12 in 2.5 mi SSW 1.2 mph - N/A   Mist
2:00 AM 41.0 °F 39.2 °F 93% 30.12 in 1.9 mi Calm Calm - N/A   Mist
2:15 AM 42.8 °F 41.0 °F 93% 30.12 in 0.6 mi ESE 1.2 mph - N/A   Mist
2:36 AM 42.8 °F 42.8 °F 100% 30.12 in 0.4 mi Calm Calm - N/A Fog Fog
3:00 AM 41.0 °F 41.0 °F 100% 30.12 in 0.4 mi Calm Calm - N/A Fog Fog
4:00 AM 39.2 °F 39.2 °F 100% 30.12 in 0.3 mi Calm Calm - N/A Fog Fog
5:00 AM 39.2 °F 39.2 °F 100% 30.12 in 0.2 mi Calm Calm - N/A Fog Fog
6:00 AM 42.8 °F 42.8 °F 100% 30.12 in 0.1 mi Calm Calm - N/A Fog Fog
7:00 AM 39.2 °F 39.2 °F 100% 30.12 in 0.1 mi Variable 2.3 mph - N/A Fog Fog
7:38 AM 39.2 °F 39.2 °F 100% 30.12 in 0.1 mi ENE 1.2 mph - N/A Fog Fog
8:00 AM 39.2 °F 39.2 °F 100% 30.12 in 0.1 mi East 2.3 mph - N/A Fog Fog
9:00 AM 42.8 °F 42.8 °F 100% 30.12 in 0.1 mi Calm Calm - N/A Fog Fog
9:32 AM 44.6 °F 44.6 °F 100% 30.12 in 0.5 mi Calm Calm - N/A Fog Fog
9:44 AM 46.4 °F 46.4 °F 100% 30.12 in 1.2 mi Calm Calm - N/A   Partly Cloudy
10:00 AM 48.2 °F 48.2 °F 100% 30.12 in 2.5 mi Calm Calm - N/A   Mist
11:00 AM 55.4 °F 53.6 °F 94% 30.12 in - Calm Calm - N/A   Clear
12:00 PM 59.0 °F 50.0 °F 72% 30.12 in - Variable 2.3 mph - N/A   Clear
1:00 PM 62.6 °F 51.8 °F 68% 30.09 in - ESE 5.8 mph - N/A   Clear
2:00 PM 64.4 °F 51.8 °F 64% 30.09 in - East 3.5 mph - N/A   Clear
3:00 PM 66.2 °F 51.8 °F 60% 30.06 in - East 4.6 mph - N/A   Clear
4:00 PM 68.0 °F 53.6 °F 60% 30.06 in - East 4.6 mph - N/A   Clear
5:00 PM 68.0 °F 51.8 °F 56% 30.06 in - East 4.6 mph - N/A   Clear
6:00 PM 60.8 °F 51.8 °F 72% 30.06 in - ENE 3.5 mph - N/A   Clear
7:00 PM 53.6 °F 51.8 °F 94% 30.06 in - Variable 2.3 mph - N/A   Clear
8:00 PM 50.0 °F 48.2 °F 94% 30.09 in - Calm Calm - N/A   Clear
9:00 PM 51.8 °F 50.0 °F 94% 30.09 in - East 3.5 mph - N/A   Clear
10:00 PM 50.0 °F 50.0 °F 100% 30.09 in - ESE 1.2 mph - N/A   Clear
11:00 PM 44.6 °F 44.6 °F 100% 30.09 in 3.1 mi Calm Calm - N/A Fog Fog